Year,Month,Day,Hour,Minute,Value (Times are PST for temperature in C)
2011,08,12,00,00,12.90
2011,08,12,00,01,12.90
2011,08,12,00,02,12.90
2011,08,12,00,03,12.90
2011,08,12,00,04,12.90
2011,08,12,00,05,12.90
2011,08,12,00,06,12.80
2011,08,12,00,07,12.80
2011,08,12,00,08,12.80
2011,08,12,00,09,12.80
2011,08,12,00,10,12.80
2011,08,12,00,11,12.80
2011,08,12,00,12,12.80
2011,08,12,00,13,12.70
2011,08,12,00,14,12.70
2011,08,12,00,15,12.70
2011,08,12,00,16,12.70
2011,08,12,00,17,12.70
2011,08,12,00,18,12.70
2011,08,12,00,19,12.70
2011,08,12,00,20,12.70
2011,08,12,00,21,12.70
2011,08,12,00,22,12.70
2011,08,12,00,23,12.70
2011,08,12,00,24,12.60
2011,08,12,00,25,12.60
2011,08,12,00,26,12.70
2011,08,12,00,27,12.70
2011,08,12,00,28,12.70
2011,08,12,00,29,12.70
2011,08,12,00,30,12.70
2011,08,12,00,31,12.70
2011,08,12,00,32,12.70
2011,08,12,00,33,12.70
2011,08,12,00,34,12.60
2011,08,12,00,35,12.60
2011,08,12,00,36,12.60
2011,08,12,00,37,12.60
2011,08,12,00,38,12.60
2011,08,12,00,39,12.60
2011,08,12,00,40,12.60
2011,08,12,00,41,12.50
2011,08,12,00,42,12.50
2011,08,12,00,43,12.50
2011,08,12,00,44,12.50
2011,08,12,00,45,12.50
2011,08,12,00,46,12.50
2011,08,12,00,47,12.50
2011,08,12,00,48,12.50
2011,08,12,00,49,12.50
2011,08,12,00,50,12.50
2011,08,12,00,51,12.40
2011,08,12,00,52,12.40
2011,08,12,00,53,12.40
2011,08,12,00,54,12.40
2011,08,12,00,55,12.40
2011,08,12,00,56,12.40
2011,08,12,00,57,12.40
2011,08,12,00,58,12.40
2011,08,12,00,59,12.40
2011,08,12,01,00,12.40
2011,08,12,01,01,12.40
2011,08,12,01,02,12.40
2011,08,12,01,03,12.40
2011,08,12,01,04,12.40
2011,08,12,01,05,12.40
2011,08,12,01,06,12.40
2011,08,12,01,07,12.30
2011,08,12,01,08,12.30
2011,08,12,01,09,12.30
2011,08,12,01,10,12.30
2011,08,12,01,11,12.30
2011,08,12,01,12,12.40
2011,08,12,01,13,12.40
2011,08,12,01,14,12.50
2011,08,12,01,15,12.50
2011,08,12,01,16,12.60
2011,08,12,01,17,12.70
2011,08,12,01,18,12.70
2011,08,12,01,19,12.80
2011,08,12,01,20,12.80
2011,08,12,01,21,12.80
2011,08,12,01,22,12.90
2011,08,12,01,23,13.00
2011,08,12,01,24,13.00
2011,08,12,01,25,13.00
2011,08,12,01,26,13.10
2011,08,12,01,27,13.10
2011,08,12,01,28,13.10
2011,08,12,01,29,13.10
2011,08,12,01,30,13.10
2011,08,12,01,31,13.10
2011,08,12,01,32,13.10
2011,08,12,01,33,13.10
2011,08,12,01,34,13.10
2011,08,12,01,35,13.10
2011,08,12,01,36,13.10
2011,08,12,01,37,13.00
2011,08,12,01,38,12.90
2011,08,12,01,39,12.80
2011,08,12,01,40,12.80
2011,08,12,01,41,12.70
2011,08,12,01,42,12.70
2011,08,12,01,43,12.60
2011,08,12,01,44,12.50
2011,08,12,01,45,12.40
2011,08,12,01,46,12.30
2011,08,12,01,47,12.20
2011,08,12,01,48,12.20
2011,08,12,01,49,12.10
2011,08,12,01,50,12.00
2011,08,12,01,51,11.90
2011,08,12,01,52,11.90
2011,08,12,01,53,11.90
2011,08,12,01,54,11.90
2011,08,12,01,55,11.80
2011,08,12,01,56,11.80
2011,08,12,01,57,11.80
2011,08,12,01,58,11.80
2011,08,12,01,59,11.80
2011,08,12,02,00,11.80
2011,08,12,02,01,11.80
2011,08,12,02,02,11.90
2011,08,12,02,03,11.90
2011,08,12,02,04,11.90
2011,08,12,02,05,11.90
2011,08,12,02,06,11.90
2011,08,12,02,07,12.00
2011,08,12,02,08,12.00
2011,08,12,02,09,12.00
2011,08,12,02,10,12.10
2011,08,12,02,11,12.20
2011,08,12,02,12,12.30
2011,08,12,02,13,12.40
2011,08,12,02,14,12.40
2011,08,12,02,15,12.40
2011,08,12,02,16,12.50
2011,08,12,02,17,12.50
2011,08,12,02,18,12.60
2011,08,12,02,19,12.60
2011,08,12,02,20,12.70
2011,08,12,02,21,12.70
2011,08,12,02,22,12.80
2011,08,12,02,23,12.80
2011,08,12,02,24,12.80
2011,08,12,02,25,12.90
2011,08,12,02,26,12.90
2011,08,12,02,27,12.90
2011,08,12,02,28,12.90
2011,08,12,02,29,13.00
2011,08,12,02,30,13.00
2011,08,12,02,31,13.00
2011,08,12,02,32,13.00
2011,08,12,02,33,13.00
2011,08,12,02,34,13.00
2011,08,12,02,35,13.00
2011,08,12,02,36,13.00
2011,08,12,02,37,13.00
2011,08,12,02,38,13.00
2011,08,12,02,39,13.00
2011,08,12,02,40,13.00
2011,08,12,02,41,13.00
2011,08,12,02,42,13.00
2011,08,12,02,43,13.00
2011,08,12,02,44,13.00
2011,08,12,02,45,13.00
2011,08,12,02,46,13.00
2011,08,12,02,47,13.00
2011,08,12,02,48,13.00
2011,08,12,02,49,13.00
2011,08,12,02,50,13.00
2011,08,12,02,51,13.00
2011,08,12,02,52,13.00
2011,08,12,02,53,13.00
2011,08,12,02,54,12.90
2011,08,12,02,55,13.00
2011,08,12,02,56,12.90
2011,08,12,02,57,12.90
2011,08,12,02,58,13.00
2011,08,12,02,59,13.00
2011,08,12,03,00,13.00
2011,08,12,03,01,12.90
2011,08,12,03,02,12.90
2011,08,12,03,06,12.90
2011,08,12,03,07,12.90
2011,08,12,03,08,12.90
2011,08,12,03,09,12.90
2011,08,12,03,10,12.90
2011,08,12,03,11,12.90
2011,08,12,03,12,12.90
2011,08,12,03,13,12.90
2011,08,12,03,14,12.90
2011,08,12,03,15,12.90
2011,08,12,03,16,12.90
2011,08,12,03,17,12.90
2011,08,12,03,18,12.90
2011,08,12,03,19,12.90
2011,08,12,03,20,12.90
2011,08,12,03,21,12.80
2011,08,12,03,22,12.80
2011,08,12,03,23,12.70
2011,08,12,03,24,12.60
2011,08,12,03,25,12.50
2011,08,12,03,26,12.40
2011,08,12,03,27,12.30
2011,08,12,03,28,12.20
2011,08,12,03,29,12.10
2011,08,12,03,30,12.10
2011,08,12,03,31,12.00
2011,08,12,03,32,12.00
2011,08,12,03,33,12.00
2011,08,12,03,34,12.00
2011,08,12,03,35,12.10
2011,08,12,03,36,12.10
2011,08,12,03,37,12.10
2011,08,12,03,38,12.20
2011,08,12,03,39,12.20
2011,08,12,03,40,12.20
2011,08,12,03,41,12.20
2011,08,12,03,42,12.20
2011,08,12,03,43,12.20
2011,08,12,03,44,12.20
2011,08,12,03,45,12.20
2011,08,12,03,46,12.20
2011,08,12,03,47,12.20
2011,08,12,03,48,12.10
2011,08,12,03,49,12.10
2011,08,12,03,50,12.00
2011,08,12,03,51,11.90
2011,08,12,03,52,11.90
2011,08,12,03,53,11.80
2011,08,12,03,54,11.80
2011,08,12,03,55,11.80
2011,08,12,03,56,11.80
2011,08,12,03,57,11.80
2011,08,12,03,58,11.80
2011,08,12,03,59,11.80
2011,08,12,04,00,11.80
2011,08,12,04,01,11.80
2011,08,12,04,02,11.80
2011,08,12,04,03,11.80
2011,08,12,04,04,11.90
2011,08,12,04,05,11.90
2011,08,12,04,06,12.00
2011,08,12,04,07,12.00
2011,08,12,04,08,12.10
2011,08,12,04,09,12.10
2011,08,12,04,10,12.10
2011,08,12,04,11,12.20
2011,08,12,04,12,12.20
2011,08,12,04,13,12.20
2011,08,12,04,14,12.20
2011,08,12,04,15,12.30
2011,08,12,04,16,12.30
2011,08,12,04,17,12.30
2011,08,12,04,18,12.30
2011,08,12,04,19,12.30
2011,08,12,04,20,12.30
2011,08,12,04,21,12.30
2011,08,12,04,22,12.30
2011,08,12,04,23,12.30
2011,08,12,04,24,12.30
2011,08,12,04,25,12.30
2011,08,12,04,26,12.30
2011,08,12,04,27,12.30
2011,08,12,04,28,12.30
2011,08,12,04,29,12.30
2011,08,12,04,30,12.30
2011,08,12,04,31,12.40
2011,08,12,04,32,12.40
2011,08,12,04,33,12.30
2011,08,12,04,34,12.30
2011,08,12,04,35,12.30
2011,08,12,04,36,12.30
2011,08,12,04,37,12.30
2011,08,12,04,38,12.30
2011,08,12,04,39,12.40
2011,08,12,04,40,12.40
2011,08,12,04,41,12.40
2011,08,12,04,42,12.40
2011,08,12,04,43,12.50
2011,08,12,04,44,12.50
2011,08,12,04,45,12.50
2011,08,12,04,46,12.50
2011,08,12,04,47,12.50
2011,08,12,04,48,12.50
2011,08,12,04,49,12.50
2011,08,12,04,50,12.50
2011,08,12,04,51,12.50
2011,08,12,04,52,12.50
2011,08,12,04,53,12.50
2011,08,12,04,54,12.40
2011,08,12,04,55,12.40
2011,08,12,04,56,12.40
2011,08,12,04,57,12.40
2011,08,12,04,58,12.40
2011,08,12,04,59,12.40
2011,08,12,05,00,12.40
2011,08,12,05,01,12.40
2011,08,12,05,02,12.40
2011,08,12,05,03,12.40
2011,08,12,05,04,12.40
2011,08,12,05,05,12.40
2011,08,12,05,06,12.40
2011,08,12,05,07,12.40
2011,08,12,05,08,12.40
2011,08,12,05,09,12.40
2011,08,12,05,10,12.30
2011,08,12,05,11,12.40
2011,08,12,05,12,12.40
2011,08,12,05,13,12.40
2011,08,12,05,14,12.30
2011,08,12,05,15,12.30
2011,08,12,05,16,12.20
2011,08,12,05,17,12.20
2011,08,12,05,18,12.10
2011,08,12,05,19,12.10
2011,08,12,05,20,12.10
2011,08,12,05,21,12.10
2011,08,12,05,22,12.10
2011,08,12,05,23,12.10
2011,08,12,05,24,12.10
2011,08,12,05,25,12.10
2011,08,12,05,26,12.00
2011,08,12,05,27,12.00
2011,08,12,05,28,11.90
2011,08,12,05,29,11.90
2011,08,12,05,30,11.90
2011,08,12,05,31,11.90
2011,08,12,05,32,11.90
2011,08,12,05,33,12.00
2011,08,12,05,34,12.00
2011,08,12,05,35,12.00
2011,08,12,05,36,12.00
2011,08,12,05,37,12.10
2011,08,12,05,38,12.10
2011,08,12,05,39,12.10
2011,08,12,05,40,12.10
2011,08,12,05,41,12.10
2011,08,12,05,42,12.20
2011,08,12,05,43,12.20
2011,08,12,05,44,12.20
2011,08,12,05,45,12.20
2011,08,12,05,46,12.20
2011,08,12,05,47,12.20
2011,08,12,05,48,12.20
2011,08,12,05,49,12.20
2011,08,12,05,50,12.20
2011,08,12,05,51,12.30
2011,08,12,05,52,12.30
2011,08,12,05,53,12.30
2011,08,12,05,54,12.30
2011,08,12,05,55,12.30
2011,08,12,05,56,12.30
2011,08,12,05,57,12.30
2011,08,12,05,58,12.30
2011,08,12,05,59,12.30
2011,08,12,06,00,12.30
2011,08,12,06,01,12.30
2011,08,12,06,02,12.30
2011,08,12,06,03,12.30
2011,08,12,06,04,12.30
2011,08,12,06,05,12.30
2011,08,12,06,06,12.30
2011,08,12,06,07,12.30
2011,08,12,06,08,12.30
2011,08,12,06,09,12.30
2011,08,12,06,10,12.30
2011,08,12,06,11,12.40
2011,08,12,06,12,12.40
2011,08,12,06,13,12.40
2011,08,12,06,14,12.40
2011,08,12,06,15,12.50
2011,08,12,06,16,12.50
2011,08,12,06,17,12.50
2011,08,12,06,18,12.50
2011,08,12,06,19,12.40
2011,08,12,06,20,12.50
2011,08,12,06,21,12.40
2011,08,12,06,22,12.50
2011,08,12,06,23,12.50
2011,08,12,06,24,12.50
2011,08,12,06,25,12.40
2011,08,12,06,26,12.40
2011,08,12,06,27,12.40
2011,08,12,06,28,12.40
2011,08,12,06,29,12.40
2011,08,12,06,30,12.40
2011,08,12,06,31,12.40
2011,08,12,06,32,12.40
2011,08,12,06,33,12.40
2011,08,12,06,34,12.40
2011,08,12,06,35,12.40
2011,08,12,06,36,12.30
2011,08,12,06,37,12.30
2011,08,12,06,38,12.30
2011,08,12,06,39,12.30
2011,08,12,06,40,12.30
2011,08,12,06,41,12.20
2011,08,12,06,42,12.20
2011,08,12,06,43,12.20
2011,08,12,06,44,12.20
2011,08,12,06,45,12.10
2011,08,12,06,46,12.10
2011,08,12,06,47,12.10
2011,08,12,06,48,12.10
2011,08,12,06,49,12.10
2011,08,12,06,50,12.10
2011,08,12,06,51,12.20
2011,08,12,06,52,12.20
2011,08,12,06,53,12.20
2011,08,12,06,54,12.30
2011,08,12,06,55,12.30
2011,08,12,06,56,12.40
2011,08,12,06,57,12.50
2011,08,12,06,58,12.50
2011,08,12,06,59,12.60
2011,08,12,07,00,12.70
2011,08,12,07,01,12.70
2011,08,12,07,02,12.70
2011,08,12,07,03,12.70
2011,08,12,07,04,12.80
2011,08,12,07,05,12.80
2011,08,12,07,06,12.80
2011,08,12,07,07,12.80
2011,08,12,07,08,12.80
2011,08,12,07,09,12.80
2011,08,12,07,10,12.80
2011,08,12,07,11,12.80
2011,08,12,07,12,12.80
2011,08,12,07,13,12.80
2011,08,12,07,14,12.90
2011,08,12,07,15,12.90
2011,08,12,07,16,12.90
2011,08,12,07,17,12.90
2011,08,12,07,18,13.00
2011,08,12,07,19,13.00
2011,08,12,07,20,13.10
2011,08,12,07,21,13.20
2011,08,12,07,22,13.20
2011,08,12,07,23,13.20
2011,08,12,07,24,13.30
2011,08,12,07,25,13.30
2011,08,12,07,26,13.40
2011,08,12,07,27,13.40
2011,08,12,07,28,13.40
2011,08,12,07,29,13.50
2011,08,12,07,30,13.60
2011,08,12,07,31,13.70
2011,08,12,07,32,13.70
2011,08,12,07,33,13.80
2011,08,12,07,34,13.90
2011,08,12,07,35,13.90
2011,08,12,07,36,14.00
2011,08,12,07,37,14.00
2011,08,12,07,38,14.00
2011,08,12,07,39,14.10
2011,08,12,07,40,14.10
2011,08,12,07,41,14.20
2011,08,12,07,42,14.20
2011,08,12,07,43,14.30
2011,08,12,07,44,14.40
2011,08,12,07,45,14.40
2011,08,12,07,46,14.50
2011,08,12,07,47,14.60
2011,08,12,07,48,14.70
2011,08,12,07,49,14.80
2011,08,12,07,50,15.00
2011,08,12,07,51,15.00
2011,08,12,07,52,15.00
2011,08,12,07,53,15.10
2011,08,12,07,54,15.20
2011,08,12,07,55,15.30
2011,08,12,07,56,15.40
2011,08,12,07,57,15.50
2011,08,12,07,58,15.60
2011,08,12,07,59,15.60
2011,08,12,08,00,15.70
2011,08,12,08,01,15.80
2011,08,12,08,02,15.80
2011,08,12,08,03,15.90
2011,08,12,08,04,16.00
2011,08,12,08,05,16.00
2011,08,12,08,06,16.10
2011,08,12,08,07,16.10
2011,08,12,08,08,16.10
2011,08,12,08,09,16.20
2011,08,12,08,10,16.20
2011,08,12,08,11,16.20
2011,08,12,08,12,16.20
2011,08,12,08,13,16.20
2011,08,12,08,14,16.20
2011,08,12,08,15,16.20
2011,08,12,08,16,16.20
2011,08,12,08,17,16.20
2011,08,12,08,18,16.20
2011,08,12,08,19,16.20
2011,08,12,08,20,16.20
2011,08,12,08,21,16.20
2011,08,12,08,22,16.20
2011,08,12,08,23,16.20
2011,08,12,08,24,16.30
2011,08,12,08,25,16.30
2011,08,12,08,26,16.30
2011,08,12,08,27,16.40
2011,08,12,08,28,16.40
2011,08,12,08,29,16.40
2011,08,12,08,30,16.40
2011,08,12,08,31,16.50
2011,08,12,08,32,16.50
2011,08,12,08,33,16.60
2011,08,12,08,34,16.60
2011,08,12,08,35,16.60
2011,08,12,08,36,16.60
2011,08,12,08,37,16.60
2011,08,12,08,38,16.70
2011,08,12,08,39,16.70
2011,08,12,08,40,16.80
2011,08,12,08,41,16.80
2011,08,12,08,42,16.90
2011,08,12,08,43,17.00
2011,08,12,08,44,17.10
2011,08,12,08,45,17.20
2011,08,12,08,46,17.20
2011,08,12,08,47,17.30
2011,08,12,08,48,17.30
2011,08,12,08,49,17.40
2011,08,12,08,50,17.40
2011,08,12,08,51,17.50
2011,08,12,08,52,17.50
2011,08,12,08,53,17.40
2011,08,12,08,54,17.40
2011,08,12,08,55,17.40
2011,08,12,08,56,17.30
2011,08,12,08,57,17.30
2011,08,12,08,58,17.30
2011,08,12,08,59,17.30
2011,08,12,09,00,17.40
2011,08,12,09,01,17.40
2011,08,12,09,02,17.40
2011,08,12,09,03,17.40
2011,08,12,09,04,17.50
2011,08,12,09,05,17.60
2011,08,12,09,06,17.60
2011,08,12,09,07,17.60
2011,08,12,09,08,17.50
2011,08,12,09,09,17.50
2011,08,12,09,10,17.60
2011,08,12,09,11,17.60
2011,08,12,09,12,17.50
2011,08,12,09,13,17.50
2011,08,12,09,14,17.50
2011,08,12,09,15,17.60
2011,08,12,09,16,17.60
2011,08,12,09,17,17.70
2011,08,12,09,18,17.80
2011,08,12,09,19,17.80
2011,08,12,09,20,17.80
2011,08,12,09,21,17.80
2011,08,12,09,22,17.80
2011,08,12,09,23,17.80
2011,08,12,09,24,17.70
2011,08,12,09,25,17.70
2011,08,12,09,26,17.60
2011,08,12,09,27,17.60
2011,08,12,09,28,17.50
2011,08,12,09,29,17.40
2011,08,12,09,30,17.40
2011,08,12,09,31,17.30
2011,08,12,09,32,17.30
2011,08,12,09,33,17.20
2011,08,12,09,34,17.20
2011,08,12,09,35,17.20
2011,08,12,09,36,17.20
2011,08,12,09,37,17.30
2011,08,12,09,38,17.30
2011,08,12,09,39,17.30
2011,08,12,09,40,17.30
2011,08,12,09,41,17.30
2011,08,12,09,42,17.40
2011,08,12,09,43,17.40
2011,08,12,09,44,17.50
2011,08,12,09,45,17.50
2011,08,12,09,46,17.60
2011,08,12,09,47,17.60
2011,08,12,09,48,17.50
2011,08,12,09,49,17.50
2011,08,12,09,50,17.60
2011,08,12,09,51,17.60
2011,08,12,09,52,17.60
2011,08,12,09,53,17.70
2011,08,12,09,54,17.80
2011,08,12,09,55,17.90
2011,08,12,09,56,18.00
2011,08,12,09,57,18.20
2011,08,12,09,58,18.30
2011,08,12,09,59,18.40
2011,08,12,10,00,18.50
2011,08,12,10,01,18.50
2011,08,12,10,02,18.70
2011,08,12,10,03,18.70
2011,08,12,10,04,18.80
2011,08,12,10,05,18.90
2011,08,12,10,06,19.00
2011,08,12,10,07,19.10
2011,08,12,10,08,19.20
2011,08,12,10,09,19.30
2011,08,12,10,10,19.40
2011,08,12,10,11,19.50
2011,08,12,10,12,19.50
2011,08,12,10,13,19.50
2011,08,12,10,14,19.60
2011,08,12,10,15,19.60
2011,08,12,10,16,19.70
2011,08,12,10,17,19.70
2011,08,12,10,18,19.70
2011,08,12,10,19,19.80
2011,08,12,10,20,19.80
2011,08,12,10,21,19.90
2011,08,12,10,22,19.80
2011,08,12,10,23,19.70
2011,08,12,10,24,19.60
2011,08,12,10,25,19.50
2011,08,12,10,26,19.50
2011,08,12,10,27,19.40
2011,08,12,10,28,19.50
2011,08,12,10,29,19.60
2011,08,12,10,30,19.70
2011,08,12,10,31,19.80
2011,08,12,10,32,19.90
2011,08,12,10,33,20.00
2011,08,12,10,34,20.00
2011,08,12,10,35,20.10
2011,08,12,10,36,20.10
2011,08,12,10,37,20.00
2011,08,12,10,38,19.90
2011,08,12,10,39,19.90
2011,08,12,10,40,19.90
2011,08,12,10,41,20.00
2011,08,12,10,42,20.00
2011,08,12,10,43,20.00
2011,08,12,10,44,20.10
2011,08,12,10,45,20.00
2011,08,12,10,46,20.00
2011,08,12,10,47,19.90
2011,08,12,10,48,19.90
2011,08,12,10,49,19.90
2011,08,12,10,50,19.80
2011,08,12,10,51,19.80
2011,08,12,10,52,19.70
2011,08,12,10,53,19.70
2011,08,12,10,54,19.70
2011,08,12,10,55,19.80
2011,08,12,10,56,19.80
2011,08,12,10,57,19.80
2011,08,12,10,58,19.90
2011,08,12,10,59,20.00
2011,08,12,11,00,20.00
2011,08,12,11,01,19.90
2011,08,12,11,02,19.80
2011,08,12,11,03,19.70
2011,08,12,11,04,19.60
2011,08,12,11,05,19.50
2011,08,12,11,06,19.30
2011,08,12,11,07,19.30
2011,08,12,11,08,19.20
2011,08,12,11,09,19.20
2011,08,12,11,10,19.10
2011,08,12,11,11,19.20
2011,08,12,11,12,19.20
2011,08,12,11,13,19.30
2011,08,12,11,14,19.30
2011,08,12,11,15,19.40
2011,08,12,11,16,19.40
2011,08,12,11,17,19.50
2011,08,12,11,18,19.50
2011,08,12,11,19,19.60
2011,08,12,11,20,19.70
2011,08,12,11,21,19.80
2011,08,12,11,22,19.90
2011,08,12,11,23,20.00
2011,08,12,11,24,20.10
2011,08,12,11,25,20.00
2011,08,12,11,26,19.90
2011,08,12,11,27,19.90
2011,08,12,11,28,19.90
2011,08,12,11,29,19.80
2011,08,12,11,30,19.70
2011,08,12,11,31,19.70
2011,08,12,11,32,19.70
2011,08,12,11,33,19.70
2011,08,12,11,34,19.70
2011,08,12,11,35,19.80
2011,08,12,11,36,19.80
2011,08,12,11,37,19.80
2011,08,12,11,38,19.80
2011,08,12,11,39,19.80
2011,08,12,11,40,19.90
2011,08,12,11,41,20.00
2011,08,12,11,42,20.10
2011,08,12,11,43,20.20
2011,08,12,11,44,20.20
2011,08,12,11,45,20.20
2011,08,12,11,46,20.20
2011,08,12,11,47,20.20
2011,08,12,11,48,20.10
2011,08,12,11,49,20.10
2011,08,12,11,50,20.10
2011,08,12,11,51,20.10
2011,08,12,11,52,20.00
2011,08,12,11,53,19.90
2011,08,12,11,54,19.90
2011,08,12,11,55,19.80
2011,08,12,11,56,19.80
2011,08,12,11,57,19.90
2011,08,12,11,58,20.00
2011,08,12,11,59,20.00
2011,08,12,12,00,19.90
2011,08,12,12,01,19.90
2011,08,12,12,02,19.80
2011,08,12,12,03,19.80
2011,08,12,12,04,19.80
2011,08,12,12,05,19.90
2011,08,12,12,06,19.80
2011,08,12,12,07,19.80
2011,08,12,12,08,19.90
2011,08,12,12,09,19.80
2011,08,12,12,10,19.80
2011,08,12,12,11,19.70
2011,08,12,12,12,19.70
2011,08,12,12,13,19.70
2011,08,12,12,14,19.70
2011,08,12,12,15,19.70
2011,08,12,12,16,19.70
2011,08,12,12,17,19.80
2011,08,12,12,18,19.90
2011,08,12,12,19,19.90
2011,08,12,12,20,20.10
2011,08,12,12,21,20.20
2011,08,12,12,22,20.20
2011,08,12,12,23,20.10
2011,08,12,12,24,20.00
2011,08,12,12,25,19.90
2011,08,12,12,26,19.80
2011,08,12,12,27,19.80
2011,08,12,12,28,19.80
2011,08,12,12,29,19.70
2011,08,12,12,30,19.70
2011,08,12,12,31,19.70
2011,08,12,12,32,19.60
2011,08,12,12,33,19.60
2011,08,12,12,34,19.60
2011,08,12,12,35,19.70
2011,08,12,12,36,19.80
2011,08,12,12,37,19.90
2011,08,12,12,38,20.00
2011,08,12,12,39,20.00
2011,08,12,12,40,20.00
2011,08,12,12,41,20.10
2011,08,12,12,42,20.20
2011,08,12,12,43,20.20
2011,08,12,12,44,20.30
2011,08,12,12,45,20.40
2011,08,12,12,46,20.40
2011,08,12,12,47,20.40
2011,08,12,12,48,20.40
2011,08,12,12,49,20.40
2011,08,12,12,50,20.40
2011,08,12,12,51,20.40
2011,08,12,12,52,20.40
2011,08,12,12,53,20.40
2011,08,12,12,54,20.40
2011,08,12,12,55,20.40
2011,08,12,12,56,20.40
2011,08,12,12,57,20.50
2011,08,12,12,58,20.50
2011,08,12,12,59,20.60
2011,08,12,13,00,20.50
2011,08,12,13,01,20.40
2011,08,12,13,02,20.30
2011,08,12,13,03,20.20
2011,08,12,13,04,20.00
2011,08,12,13,05,19.90
2011,08,12,13,06,19.80
2011,08,12,13,07,19.80
2011,08,12,13,08,19.80
2011,08,12,13,09,19.80
2011,08,12,13,10,19.80
2011,08,12,13,11,19.80
2011,08,12,13,12,19.70
2011,08,12,13,13,19.70
2011,08,12,13,14,19.70
2011,08,12,13,15,19.70
2011,08,12,13,16,19.90
2011,08,12,13,17,20.00
2011,08,12,13,18,20.10
2011,08,12,13,19,20.20
2011,08,12,13,20,20.30
2011,08,12,13,21,20.30
2011,08,12,13,22,20.40
2011,08,12,13,23,20.50
2011,08,12,13,24,20.60
2011,08,12,13,25,20.60
2011,08,12,13,26,20.70
2011,08,12,13,27,20.80
2011,08,12,13,28,20.90
2011,08,12,13,29,20.90
2011,08,12,13,30,20.80
2011,08,12,13,31,20.60
2011,08,12,13,32,20.50
2011,08,12,13,33,20.40
2011,08,12,13,34,20.40
2011,08,12,13,35,20.50
2011,08,12,13,36,20.60
2011,08,12,13,37,20.70
2011,08,12,13,38,20.80
2011,08,12,13,39,20.80
2011,08,12,13,40,20.80
2011,08,12,13,41,20.90
2011,08,12,13,42,20.90
2011,08,12,13,43,20.90
2011,08,12,13,44,20.80
2011,08,12,13,45,20.80
2011,08,12,13,46,20.90
2011,08,12,13,47,20.90
2011,08,12,13,48,21.00
2011,08,12,13,49,21.10
2011,08,12,13,50,21.10
2011,08,12,13,51,21.20
2011,08,12,13,52,21.10
2011,08,12,13,53,21.10
2011,08,12,13,54,21.00
2011,08,12,13,55,20.90
2011,08,12,13,56,20.90
2011,08,12,13,57,20.90
2011,08,12,13,58,21.00
2011,08,12,13,59,21.00
2011,08,12,14,00,21.20
2011,08,12,14,01,21.20
2011,08,12,14,02,21.30
2011,08,12,14,03,21.30
2011,08,12,14,04,21.30
2011,08,12,14,05,21.30
2011,08,12,14,06,21.30
2011,08,12,14,07,21.20
2011,08,12,14,08,21.10
2011,08,12,14,09,21.10
2011,08,12,14,10,21.00
2011,08,12,14,11,21.00
2011,08,12,14,12,20.90
2011,08,12,14,13,20.80
2011,08,12,14,14,20.90
2011,08,12,14,15,20.90
2011,08,12,14,16,21.00
2011,08,12,14,17,21.10
2011,08,12,14,18,21.10
2011,08,12,14,19,21.20
2011,08,12,14,20,21.20
2011,08,12,14,21,21.20
2011,08,12,14,22,21.30
2011,08,12,14,23,21.40
2011,08,12,14,24,21.50
2011,08,12,14,25,21.60
2011,08,12,14,26,21.70
2011,08,12,14,27,21.70
2011,08,12,14,28,21.60
2011,08,12,14,29,21.60
2011,08,12,14,30,21.60
2011,08,12,14,31,21.60
2011,08,12,14,32,21.70
2011,08,12,14,33,21.80
2011,08,12,14,34,21.80
2011,08,12,14,35,21.80
2011,08,12,14,36,21.80
2011,08,12,14,37,21.80
2011,08,12,14,38,21.90
2011,08,12,14,39,21.90
2011,08,12,14,40,21.90
2011,08,12,14,41,21.90
2011,08,12,14,42,21.90
2011,08,12,14,43,21.90
2011,08,12,14,44,21.90
2011,08,12,14,45,22.00
2011,08,12,14,46,22.10
2011,08,12,14,47,22.10
2011,08,12,14,48,22.10
2011,08,12,14,49,22.00
2011,08,12,14,50,21.90
2011,08,12,14,51,21.90
2011,08,12,14,52,21.80
2011,08,12,14,53,21.80
2011,08,12,14,54,21.80
2011,08,12,14,55,21.80
2011,08,12,14,56,21.90
2011,08,12,14,57,21.90
2011,08,12,14,58,21.90
2011,08,12,14,59,21.90
2011,08,12,15,00,22.00
2011,08,12,15,01,22.00
2011,08,12,15,02,22.10
2011,08,12,15,03,22.10
2011,08,12,15,04,22.10
2011,08,12,15,05,22.10
2011,08,12,15,06,22.10
2011,08,12,15,07,22.10
2011,08,12,15,08,22.00
2011,08,12,15,09,22.00
2011,08,12,15,10,21.90
2011,08,12,15,11,21.90
2011,08,12,15,12,21.90
2011,08,12,15,13,21.90
2011,08,12,15,14,22.00
2011,08,12,15,15,22.10
2011,08,12,15,16,22.10
2011,08,12,15,17,22.20
2011,08,12,15,18,22.20
2011,08,12,15,19,22.20
2011,08,12,15,20,22.20
2011,08,12,15,21,22.20
2011,08,12,15,22,22.20
2011,08,12,15,23,22.20
2011,08,12,15,24,22.20
2011,08,12,15,25,22.30
2011,08,12,15,26,22.30
2011,08,12,15,27,22.30
2011,08,12,15,28,22.30
2011,08,12,15,29,22.40
2011,08,12,15,30,22.40
2011,08,12,15,31,22.50
2011,08,12,15,32,22.60
2011,08,12,15,33,22.70
2011,08,12,15,34,22.70
2011,08,12,15,35,22.70
2011,08,12,15,36,22.70
2011,08,12,15,37,22.80
2011,08,12,15,38,22.80
2011,08,12,15,39,22.90
2011,08,12,15,40,22.90
2011,08,12,15,41,22.90
2011,08,12,15,42,22.90
2011,08,12,15,43,22.80
2011,08,12,15,44,22.80
2011,08,12,15,45,22.80
2011,08,12,15,46,22.70
2011,08,12,15,47,22.60
2011,08,12,15,48,22.60
2011,08,12,15,49,22.60
2011,08,12,15,50,22.60
2011,08,12,15,51,22.70
2011,08,12,15,52,22.80
2011,08,12,15,53,22.90
2011,08,12,15,54,22.90
2011,08,12,15,55,22.90
2011,08,12,15,56,22.80
2011,08,12,15,57,22.80
2011,08,12,15,58,22.70
2011,08,12,15,59,22.80
2011,08,12,16,00,22.80
2011,08,12,16,01,22.80
2011,08,12,16,02,22.90
2011,08,12,16,03,22.90
2011,08,12,16,04,23.00
2011,08,12,16,05,23.10
2011,08,12,16,06,23.20
2011,08,12,16,07,23.20
2011,08,12,16,08,23.30
2011,08,12,16,09,23.30
2011,08,12,16,10,23.30
2011,08,12,16,11,23.30
2011,08,12,16,12,23.30
2011,08,12,16,13,23.30
2011,08,12,16,14,23.20
2011,08,12,16,15,23.20
2011,08,12,16,16,23.10
2011,08,12,16,17,23.10
2011,08,12,16,18,23.10
2011,08,12,16,19,23.10
2011,08,12,16,20,23.10
2011,08,12,16,21,23.10
2011,08,12,16,22,23.00
2011,08,12,16,23,23.00
2011,08,12,16,24,23.00
2011,08,12,16,25,22.90
2011,08,12,16,26,23.00
2011,08,12,16,27,23.00
2011,08,12,16,28,23.00
2011,08,12,16,29,23.10
2011,08,12,16,30,23.10
2011,08,12,16,31,23.00
2011,08,12,16,32,23.00
2011,08,12,16,33,23.00
2011,08,12,16,34,23.00
2011,08,12,16,35,23.00
2011,08,12,16,36,23.00
2011,08,12,16,37,23.00
2011,08,12,16,38,23.10
2011,08,12,16,39,23.10
2011,08,12,16,40,23.20
2011,08,12,16,41,23.20
2011,08,12,16,42,23.20
2011,08,12,16,43,23.30
2011,08,12,16,44,23.30
2011,08,12,16,45,23.40
2011,08,12,16,46,23.40
2011,08,12,16,47,23.30
2011,08,12,16,48,23.20
2011,08,12,16,49,23.10
2011,08,12,16,50,23.20
2011,08,12,16,51,23.20
2011,08,12,16,52,23.20
2011,08,12,16,53,23.20
2011,08,12,16,54,23.10
2011,08,12,16,55,23.00
2011,08,12,16,56,22.90
2011,08,12,16,57,22.70
2011,08,12,16,58,22.60
2011,08,12,16,59,22.60
2011,08,12,17,00,22.50
2011,08,12,17,01,22.50
2011,08,12,17,02,22.40
2011,08,12,17,03,22.40
2011,08,12,17,04,22.40
2011,08,12,17,05,22.50
2011,08,12,17,06,22.60
2011,08,12,17,07,22.50
2011,08,12,17,08,22.50
2011,08,12,17,09,22.40
2011,08,12,17,10,22.40
2011,08,12,17,11,22.40
2011,08,12,17,12,22.40
2011,08,12,17,13,22.40
2011,08,12,17,14,22.30
2011,08,12,17,15,22.30
2011,08,12,17,16,22.30
2011,08,12,17,17,22.20
2011,08,12,17,18,22.20
2011,08,12,17,19,22.30
2011,08,12,17,20,22.30
2011,08,12,17,21,22.30
2011,08,12,17,22,22.30